Starlink 31462

operational
NORAD ID: 59466 Int'l Des: 2024-068 Owner: SPXS Country: US Constellation: starlink
LEOCIRCULAR

About Starlink 31462

Description loading...

Live Position

Loading 3D Globe...

Upcoming Passes

Altitude History

Altitude vs Time

uPlot chart will show altitude changes over time

Two-Line Element Set

1 59466U 24068M 25303.70170023 -.00000120 00000-0 51763-5 0 9994
2 59466 43.0012 48.5276 0001315 291.1931 68.8780 15.27570229 88643
Epoch: Oct 30, 2025 • Age: 15 hours

Current Status

Altitude 495.6 km
Velocity 7.62 km/s
Sub-Earth Point -43.12°S, 155.61°E
Launch Date Apr 10, 2024
Age 1.5 years
Type internet

Technical Details

Classification Payload
Mass 730.00 kg
Dry Mass 700.00 kg
Total Mass 730.00 kg
Length 0.30 m
Diameter 4.10 m
Span 29.00 m
Shape Box + pan
Manufacturer SPXS
Bus Type Starlink V2M
Phase Status In Orbit
Owner/State SPXS/US

Large Constellations

Loading constellations...